Showing default

GHGSAT-C2, 47509

Orbit data source: Space-Track

GHGSAT-C2, 47509 is a payload satellite owned by GHG (CA) in SSO that was launched on Sun, 24 Jan 2021 UTC via an FALCON 9 launch vehicle from the Air Force Eastern Test Range (AFETR). Payload-class satellites include a variety of spacecraft equipped with specific instruments for various scientific and technological missions. These include communications satellites like Starlink; space stations such as the ISS; scientific satellites like the Hubble; Earth observation satellites from companies like Planet Labs, Umbra, and HawkEye 360; GPS; miniature CubeSats for education and research; and military/defense satellites.

Loading next visibility...
Identifier
47509, 2021-006DA
Orbit
SSO
Country
Flag of CACA
Related business
Manufacturer
UTIAS-SFL
Mission
Operational Commercial Earth Obs Sci
Bus & Motor
NEMO-V1, Unknown motor
Mass
15 kg wet, 15 kg dry
Launch date (UTC)
2021-01-24 (5 years ago)
Launch vehicle
FALCON 9
Launch site
Air Force Eastern Test Range (AFETR)
Object type
Payload
Rocket body
Debris
Shape & HBR
Box, 1.0 m
Radar Cross Section
0.100 m², Medium (>0.1 m² and < 1m²)

Expand to show TLE details & history
Last TLE update: 7 hours ago

TLE from 7 hours ago
0 GHGSAT-C2
1 47509U 21006DA  25289.12212215  .00008835  00000-0  27081-3 0  9991
2 47509  97.2545 335.6108 0004776 342.7220  17.3860 15.34001628262385
Epoch: 2025-10-16T02:55Z
TLE epoch observation values (Epoch: 2025-10-16T02:55:51.353Z)
Latitude
-0.00002°
Longitude
-93.23955°
Altitude
463.882 km
Speed
7.636 km/s
True Right ascension
22h 22m 26s
True Declination
0° 00' 00"
Sunlit
Object was in full shadow at epoch
Visualization orbit readout
Latitude
Unknown
Longitude
Unknown
Altitude
Unknown
Speed
Unknown
Apparent Right ascension
Unknown
Apparent Declination
Unknown
Sunlit
N/A
Visualization observer readout
Local Sidereal Time
04:26:21
Azimuth
Unknown
Elevation
Unknown
Doppler factor
Unknown
Orbital elements
Apogee altitude
464.095 km
Perigee altitude
457.562 km
Semi-major axis
6,838.965 km
Eccentricity
0.00048
Inclination
97.2545°
RAAN
335.6108°
Arg. of periapsis
342.722°
True anomaly
17.40236°
Mean anomaly
17.386°
Eccentric anomaly
17.39418°
Mean motion
3.83758 °/min
Orbital period
93.81 mins
BSTAR
0.00027081
Loading maneuver chart data...
Computing Atmospheric mass density...

Documentation

Showing up to 5 results
|